This demonstration page uses our WeatherBlox Daily Observations layout. Learn more.

Left ArrowRight Arrow

30.21309, -93.2044

Hourly Observations for January 6, 2023

Temp ( °F °C ) Dew Point ( °F °C ) Humidity (%) Winds ( mph kmh ) Pressure ( in mb ) Visibility ( mi km ) Precip ( " mm )
12:15 am 00:15 Clear 50 10 43 6.3 78 78 Calm 30.27 1025 10 16 0.00 0.00
12:35 am 00:35 Clear 49 9.7 44 6.4 80 80 NE 3 6 30.26 1025 10 16 0.00 0.00
12:55 am 00:55 Clear 47 8.4 44 6.5 88 88 Calm 30.26 1025 10 16 0.00 0.00
1:15 am 01:15 Clear 46 8 44 6.7 91 91 Calm 30.26 1025 10 16 0.00 0.00
1:35 am 01:35 Clear 46 7.8 44 6.4 91 91 Calm 30.26 1025 10 16 0.00 0.00
1:55 am 01:55 Clear 47 8.2 44 6.7 90 90 Calm 30.25 1024 10 16 0.00 0.00
2:15 am 02:15 Clear 46 7.8 44 6.6 92 92 Calm 30.25 1024 10 16 0.00 0.00
2:35 am 02:35 Clear 46 8 44 6.7 91 91 Calm 30.25 1024 10 16 0.00 0.00
2:55 am 02:55 Clear 47 8.6 45 7 90 90 E 5 7 30.24 1024 10 16 0.00 0.00
3:15 am 03:15 Clear 49 9.2 45 7 86 86 E 5 7 30.24 1024 10 16 0.00 0.00
3:35 am 03:35 Clear 46 7.6 44 6.4 92 92 E 5 7 30.24 1024 10 16 0.00 0.00
3:55 am 03:55 Clear 47 8.1 44 6.7 91 91 E 3 6 30.24 1024 10 16 0.00 0.00
4:15 am 04:15 Clear 48 8.7 44 6.7 87 87 ENE 3 6 30.24 1024 10 16 0.00 0.00
4:35 am 04:35 Clear 47 8.5 44 6.6 88 88 ENE 3 6 30.24 1024 10 16 0.00 0.00
4:55 am 04:55 Partly Cloudy 48 8.9 43 6.3 84 84 E 5 7 30.24 1024 10 16 0.00 0.00
5:15 am 05:15 Partly Cloudy 49 9.6 43 6.3 80 80 ENE 5 7 30.24 1024 10 16 0.00 0.00
5:35 am 05:35 Mostly Cloudy 47 8.4 44 6.4 87 87 E 3 6 30.25 1024 10 16 0.00 0.00
6:00 am 06:00 Clear 48 9 43 6 81 81 ENE 5 7 30.25 1024 10 16 0.00 0.00
6:45 am 06:45 Clear 48 9 43 6 81 81 E 5 7 30.26 1025 10 16 0.00 0.00
7:55 am 07:55 Sunny 52 11 45 7 76 76 E 6 9 30.28 1025 10 16 0.00 0.00
8:48 am 08:48 Sunny 55 13 46 8 72 72 E 8 13 30.30 1026 10 16 0.00 0.00
9:55 am 09:55 Sunny 63 17 46 8 55 55 ESE 7 11 30.30 1026 10 16 0.00 0.00
11:50 am 11:50 Sunny 70 21 46 8 43 43 SSE 9 15 30.27 1025 10 16 0.00 0.00
12:45 pm 12:45 Sunny 72 22 52 11 50 50 SSE 8 13 30.23 1024 10 16 0.00 0.00
1:45 pm 13:45 Sunny 73 23 55 13 53 53 S 13 20 30.20 1023 10 16 0.00 0.00
4:55 pm 16:55 Sunny 68 20 55 13 64 64 S 13 20 30.20 1023 10 16 0.00 0.00
5:50 pm 17:50 Clear 63 17 57 14 82 82 S 13 20 30.21 1023 10 16 0.00 0.00
6:53 pm 18:53 Clear 61 16 55 13 82 82 S 13 20 30.20 1023 10 16 0.00 0.00
7:45 pm 19:45 Clear 61 16 55 13 82 82 SSE 15 24 30.20 1023 10 16 0.00 0.00
8:55 pm 20:55 Clear 59 15 55 13 88 88 SSE 13 20 30.21 1023 10 16 0.00 0.00
9:45 pm 21:45 Clear 57 14 55 13 94 94 SSE 13 20 30.21 1023 10 16 0.00 0.00
10:15 pm 22:15 Clear 58 14.4 56 13.2 92 92 SSE 8 13 30.20 1023 10 16 0.00 0.00
10:35 pm 22:35 Clear 57 13.9 55 12.7 92 92 S 8 13 30.20 1023 10 16 0.00 0.00
10:55 pm 22:55 Clear 57 13.8 55 12.8 94 94 SSE 8 13 30.20 1023 10 16 0.00 0.00
11:15 pm 23:15 Clear 57 13.9 55 12.9 94 94 SSE 7 11 30.19 1022 10 16 0.00 0.00
11:35 pm 23:35 Clear 57 13.8 55 12.8 94 94 S 8 13 30.19 1022 10 16 0.00 0.00
11:55 pm 23:55 Clear 55 13 54 12.1 94 94 S 7 11 30.19 1022 10 16 0.00 0.00

Powered by AerisWeather